User: anonymous   Login
Location: Unspecified
(0.0000°N, 0.0000°E)
Time: 01:56:47
(UTC+00:00)
Language:

OTV 5 (USA 277) - Orbit

View from above orbital plane
View from above orbital plane
View from above satellite
View from above satellite

Ground track
Ground track

The orbit data is extracted from the following two-line orbital elements,

1 42932U 17052A   18344.19595364 0.00000500  00000-0  32619-5 0    01
2 42932  54.5128  50.5560 0006000 147.4022 212.5977 15.75203663    05
Epoch (UTC): 10 December 2018 04:42:10
Eccentricity: 0.0006000
inclination: 54.5128°
perigee height: 340 km
apogee height: 348 km
right ascension of ascending node: 50.5560°
argument of perigee: 147.4022°
revolutions per day: 15.75203663
mean anomaly at epoch: 212.5977°
orbit number at epoch: 0

The dashed part of the orbit path shows where the satellite is in the earth's shadow,  

DLR